SCP
0 0 0 0 0 0 0 0 0 0 0 0 1 2 2 3 3 3 3 3 3 4 4 5 5 4 4 4 4 5 6 7 8 8 7 5 4 3 3 3 2 2 3 3
0 0 0 1 0 0 0 0 0 0 0 0 1 2 2 3 3 3 3 3 4 4 5 5 4 4 3 3 4 5 6 7 8 8 7 6 4 4 4 4 3 3 3 3
0 0 0 0 0 0 0 0 0 0 0 1 1 1 2 2 3 3 3 3 4 4 4 4 4 3 2 3 3 4 5 6 8 8 7 6 5 4 4 4 4 4 3 3
0 0 0 0 0 0 0 0 0 0 0 1 2 2 2 2 3 3 3 4 4 4 4 3 3 2 2 2 2 3 5 6 8 8 7 5 5 5 5 4 4 4 4 4
0 0 0 0 0 0 0 0 0 0 1 2 4 4 4 3 3 4 4 4 3 3 3 2 2 2 2 2 3 4 5 7 8 8 7 6 5 5 5 5 4 4 4 4
0 0 0 0 0 0 0 0 0 1 2 3 4 5 4 4 4 4 4 4 3 2 2 2 2 2 2 3 4 5 7 8 8 8 8 7 6 5 5 6 5 4 4 4
1 1 0 0 0 0 0 0 1 1 3 4 4 5 5 5 5 4 3 3 2 2 2 2 2 2 2 3 5 6 8 9 9 9 9 8 7 5 5 6 6 5 4 5
1 1 0 0 0 0 0 1 1 2 4 6 6 6 5 5 4 3 3 2 2 2 2 3 3 3 3 3 5 7 9 9 9 8 8 7 6 6 6 6 6 5 6 7
0 0 0 0 0 0 1 1 2 3 6 7 7 6 5 4 3 2 2 1 1 2 3 3 4 4 4 4 5 7 8 9 9 8 7 7 6 6 6 6 6 6 8 9
0 0 0 0 0 1 1 2 3 5 6 7 6 5 4 3 3 2 2 1 2 2 3 3 4 5 5 5 5 6 8 9 9 9 8 8 7 7 7 7 6 6 9 10
1 0 0 1 1 2 3 4 5 5 5 5 4 3 3 2 2 2 2 2 2 2 2 3 3 4 4 4 5 6 7 8 10 10 9 9 8 8 7 6 4 4 6 8
1 0 0 1 2 3 4 4 4 4 4 3 3 2 2 2 2 2 2 2 2 2 2 2 3 4 4 4 5 6 7 8 9 10 9 9 8 7 5 3 2 1 2 3
0 1 1 2 3 4 4 4 3 3 3 3 3 2 3 2 2 2 2 2 2 2 2 2 3 4 5 5 6 7 8 9 9 10 9 8 8 6 4 1 0 0 0 0
1 2 3 4 4 4 3 3 3 3 2 2 2 2 2 2 2 3 2 2 2 2 2 2 3 4 5 6 7 9 10 11 10 10 9 8 7 5 3 1 0 0 0 0
2 3 5 5 5 4 3 3 3 2 2 2 1 1 2 2 2 2 2 2 2 2 2 2 3 4 5 6 7 9 11 12 10 9 9 7 6 4 2 1 1 0 0 0
4 5 6 6 5 3 2 2 2 2 1 1 1 1 1 2 2 1 1 1 1 1 1 1 1 2 3 4 5 7 9 9 8 8 7 6 4 3 2 1 1 1 0 0
6 6 6 5 4 2 1 1 1 1 1 1 1 2 2 2 2 1 1 1 1 1 1 1 1 1 2 3 3 5 6 6 6 6 5 4 3 2 2 2 1 1 0 0
6 6 5 4 2 1 1 0 1 1 2 2 2 2 2 2 2 2 2 2 2 1 1 1 1 1 1 2 2 3 4 4 4 3 3 2 2 2 2 2 1 0 0 0
4 4 3 2 1 1 0 0 1 2 3 3 3 2 2 2 2 2 2 2 2 1 1 1 1 1 1 1 1 2 2 2 2 1 1 1 1 1 2 2 1 0 0 0
3 2 2 1 1 0 0 0 1 2 4 4 3 2 2 2 2 2 2 2 1 1 1 1 1 1 1 1 1 1 1 1 0 0 0 0 0 1 1 1 0 0 0 0
1 1 1 0 0 0 0 0 1 2 3 3 3 2 3 3 3 3 2 2 1 1 1 0 0 0 0 0 0 0 0 0 0 0 0 0 0 1 1 0 0 0 0 0
1 1 0 0 0 0 0 0 1 1 2 2 2 3 3 3 3 3 3 3 2 1 1 0 0 0 0 0 0 0 0 0 0 0 0 0 0 0 0 0 0 0 0 1
1 1 0 0 0 0 0 1 1 1 1 2 2 3 2 2 3 3 4 4 3 1 1 1 0 0 0 0 0 0 0 0 0 0 0 0 0 0 0 0 0 0 1 1
1 1 1 0 0 0 0 1 1 1 1 1 2 2 2 1 2 2 3 3 2 1 1 1 0 0 0 0 0 0 0 0 0 0 0 0 0 0 0 0 0 0 1 1
1 1 1 0 0 0 0 1 1 1 1 1 1 1 1 1 1 1 2 2 2 1 1 1 1 0 0 0 0 0 0 0 0 0 0 0 0 0 0 0 0 0 1 1
1 0 0 0 0 0 0 1 1 1 1 0 0 0 1 1 1 1 1 1 2 2 2 2 1 0 0 0 0 0 0 0 0 0 0 0 0 0 0 0 0 0 1 1
0 0 0 0 0 0 0 0 1 1 0 0 0 0 0 0 0 0 1 1 2 2 3 3 2 1 0 1 1 1 0 0 0 0 0 0 0 0 0 0 0 0 1 1
Wind_Speed
4 3 3 4 4 6 5 8 8 8 7 9 7 6 5 4 3 2 2 1 1 1 1 1 1 0 1 1 1 1 2 3 4 4 3 3 4 4 4 4 3 3 2 2
1 1 2 2 4 6 6 5 5 3 7 7 3 2 3 4 4 4 3 3 2 1 1 1 1 1 1 1 1 2 2 2 2 2 3 3 4 4 4 4 3 3 3 3
3 2 2 4 7 7 5 5 7 8 8 2 3 6 7 7 7 6 5 4 4 3 3 3 2 2 2 1 1 1 1 1 1 2 2 3 3 4 4 4 4 3 3 3
2 2 5 9 4 5 5 4 5 4 4 5 6 5 4 5 7 6 5 5 4 3 3 2 2 1 1 2 2 2 1 1 1 1 2 2 2 3 3 3 3 3 3 4
4 4 5 6 2 3 5 4 3 4 3 2 2 3 2 4 5 6 6 5 4 4 3 2 2 2 3 2 2 2 1 1 1 2 2 2 3 3 2 3 3 3 3 3
4 4 6 7 4 1 4 3 3 2 3 2 4 2 5 4 4 3 3 3 3 2 2 2 2 3 3 2 2 2 2 2 2 2 3 3 4 3 2 2 3 3 3 3
4 4 6 5 3 3 4 7 4 3 4 5 6 6 4 3 2 3 3 3 3 3 3 2 3 4 3 2 2 3 2 1 1 2 2 3 2 2 2 2 2 3 3 2
4 3 6 3 2 4 5 4 2 3 4 5 4 1 1 2 3 3 3 3 4 4 2 1 3 4 3 3 3 1 1 1 1 1 1 1 2 2 2 3 3 3 2 2
7 6 5 2 2 3 2 2 3 3 3 3 3 2 1 2 3 3 4 4 3 4 2 1 2 3 4 3 2 1 1 1 1 1 1 1 2 2 2 2 2 2 3 3
2 4 4 3 3 3 2 2 3 2 2 3 3 3 2 3 3 3 2 3 3 4 3 2 2 2 3 2 2 2 2 1 1 1 1 1 1 1 1 2 2 3 3 3
2 4 4 4 3 3 4 3 3 3 1 1 3 3 3 3 3 3 2 2 3 4 4 3 2 2 2 2 2 2 2 2 1 1 1 1 1 1 2 2 3 3 4 4
5 5 3 5 4 3 3 3 3 3 3 2 1 3 3 3 3 3 3 2 2 3 3 2 2 2 2 2 3 3 1 1 1 1 1 1 1 1 2 1 1 2 4 3
4 3 3 4 3 2 2 3 2 1 1 1 1 1 3 2 1 2 3 3 3 3 3 3 2 2 2 2 2 2 2 2 1 1 1 1 1 1 1 2 2 2 2 2
3 0 1 2 2 3 2 3 3 3 3 2 2 2 3 3 2 2 2 2 3 3 3 3 3 2 2 2 2 2 2 2 1 1 1 1 2 2 2 1 1 2 2 2
3 2 3 2 2 2 2 2 3 4 4 4 2 2 2 3 2 1 1 1 2 1 1 1 2 2 1 2 3 2 2 1 1 1 1 1 1 1 1 1 1 1 1 2
2 1 1 1 0 1 2 2 2 2 2 2 1 0 2 2 2 1 1 2 2 2 2 2 2 3 2 2 3 2 2 2 2 1 1 1 1 1 1 1 1 1 1 1
1 1 1 1 1 1 1 1 1 2 2 2 2 0 2 3 2 1 1 0 1 2 1 2 3 2 1 2 2 2 2 2 1 1 1 2 2 1 1 1 1 2 2 2
5 5 5 5 3 2 1 2 2 2 2 2 2 0 2 3 2 1 1 1 2 2 2 2 1 1 1 2 2 2 2 2 1 1 1 1 2 2 1 2 2 2 1 1
2 3 3 3 3 2 2 1 2 1 2 1 0 1 1 2 2 1 0 1 1 1 3 2 1 0 1 2 2 2 2 2 1 1 1 1 1 1 1 1 1 1 1 1
0 1 1 1 1 1 1 1 1 1 1 1 1 0 0 1 1 1 1 1 3 3 2 2 1 1 1 1 1 1 2 2 2 1 1 1 1 1 1 2 2 1 1 1
0 0 1 1 0 0 1 1 1 1 1 1 1 2 2 1 1 1 1 2 3 2 1 1 1 1 1 0 1 1 1 2 2 2 2 2 1 1 1 1 1 2 2 1
0 1 1 1 1 0 1 1 1 1 0 0 0 1 1 1 1 1 2 2 2 1 0 0 1 1 1 0 0 1 1 1 1 1 1 1 2 2 2 1 2 2 2 1
0 1 1 0 1 1 1 1 1 1 1 1 1 1 1 1 1 1 2 2 1 1 0 1 1 0 0 0 0 0 1 1 1 1 1 1 1 2 2 2 2 2 1 1
0 1 1 1 2 2 2 1 1 1 1 1 0 1 1 0 1 1 1 1 0 0 0 0 0 0 0 0 0 0 0 0 1 1 1 1 1 1 2 2 2 1 1 2
1 1 1 2 2 1 1 1 2 2 2 2 2 2 1 1 1 1 1 1 0 1 0 1 0 1 0 0 1 1 1 1 1 1 1 1 1 1 1 1 1 1 1 2
0 0 0 1 1 1 1 1 1 0 1 1 1 1 1 1 1 1 1 1 1 1 1 1 1 1 1 1 1 1 2 2 1 1 1 1 1 1 1 2 2 2 2 2
1 1 1 1 1 0 1 1 1 1 0 1 0 1 1 1 1 1 1 1 1 1 1 1 1 1 1 1 1 1 2 2 2 2 2 1 1 2 2 2 2 2 2 2
Wind_Direction
226 218 175 199 204 183 179 184 184 219 224 246 230 217 209 195 176 152 152 164 187 203 251 312 29 80 135 155 159 164 167 182 201 202 202 197 192 191 188 191 209 208 200 207
262 230 186 222 229 200 206 194 202 212 250 246 226 179 180 185 180 188 200 209 220 221 225 228 198 193 184 193 157 133 150 187 186 174 186 198 202 193 184 182 188 186 192 205
229 286 72 256 229 200 200 202 180 203 231 203 191 201 199 193 192 200 209 211 211 214 216 220 206 182 174 184 138 138 154 163 162 166 181 205 206 191 191 186 180 186 195 200
154 107 214 240 237 190 190 212 200 211 223 202 214 215 205 195 194 204 208 207 208 209 208 201 170 144 126 142 153 155 156 167 171 164 177 189 185 190 192 184 186 198 209 214
138 177 255 287 248 178 177 238 219 208 238 213 109 65 288 225 201 201 204 205 201 199 194 177 174 163 143 148 163 164 188 222 231 207 186 185 196 202 198 191 201 209 208 212
138 161 218 244 267 231 126 263 266 204 207 175 120 158 251 226 194 193 190 180 171 165 158 167 181 160 147 172 184 211 223 230 227 216 201 204 212 210 201 198 210 213 220 222
165 199 249 263 294 106 152 240 265 215 202 185 196 216 219 170 179 179 172 166 157 153 160 178 167 154 157 179 220 246 251 246 239 226 218 218 224 213 190 191 197 202 213 235
155 183 251 291 89 156 222 269 253 219 218 203 217 238 157 159 170 165 160 163 160 153 159 162 163 158 168 209 229 216 195 232 247 243 234 210 198 211 192 183 194 209 214 236
187 208 240 245 214 246 223 249 253 223 242 203 186 198 182 176 176 170 166 169 163 154 147 173 184 169 189 221 207 184 156 235 266 275 283 209 192 201 198 191 201 213 213 226
246 267 279 285 295 309 299 279 278 253 233 192 177 178 172 174 172 165 163 159 155 149 159 201 218 206 210 205 179 170 188 231 241 215 266 288 241 219 212 214 214 222 225 229
250 283 318 310 309 316 335 351 350 349 346 206 162 170 177 174 175 171 163 162 160 163 179 207 214 218 217 192 172 178 199 218 232 222 210 231 250 250 234 229 220 218 224 219
221 225 208 261 292 317 351 354 1 20 8 7 147 173 167 166 174 164 154 145 153 165 178 204 213 220 212 189 178 175 192 220 219 226 229 213 213 314 353 297 273 236 234 224
228 239 220 260 296 323 351 348 355 28 50 360 12 128 139 133 148 145 147 163 180 187 192 201 208 226 231 198 175 176 193 213 224 225 224 222 215 205 289 359 32 33 349 275
240 211 288 288 295 319 355 359 19 27 17 18 35 77 99 96 112 130 165 189 186 186 200 199 193 218 225 187 176 187 194 208 222 233 230 227 221 215 202 198 293 336 354 329
274 233 220 260 314 354 9 26 38 24 15 14 39 90 113 127 150 175 198 144 130 146 196 193 194 240 220 178 177 189 198 213 220 232 229 228 226 213 202 198 211 261 335 343
297 347 107 119 324 9 12 15 16 348 349 344 348 36 143 140 139 136 140 141 137 193 231 222 234 249 215 183 182 199 213 212 191 201 216 211 204 205 211 208 210 225 236 259
176 202 179 205 251 300 311 290 288 295 306 304 292 236 119 105 88 55 358 208 182 215 227 224 245 258 218 192 187 196 198 197 189 194 218 222 217 218 222 229 237 239 245 236
210 213 208 199 199 224 285 305 316 313 294 282 290 109 137 147 167 206 258 31 37 1 316 280 266 258 223 204 192 191 188 194 200 210 230 236 234 227 223 227 236 245 267 269
223 216 222 216 208 193 215 250 284 301 309 306 1 234 196 194 197 200 136 103 159 264 285 298 304 311 268 244 204 191 190 195 204 211 215 230 237 239 223 223 233 242 253 260
249 188 188 224 210 163 202 238 260 301 304 158 154 168 153 249 199 159 131 250 250 246 259 271 257 243 253 252 228 197 193 198 209 213 204 206 211 225 232 226 225 232 234 233
356 287 230 209 191 229 195 185 184 234 266 180 168 201 204 226 205 149 165 260 282 275 248 242 254 274 283 256 216 193 191 196 203 207 203 204 206 203 219 234 239 236 239 241
280 216 237 227 127 336 286 217 173 163 228 261 166 134 129 168 191 208 232 234 252 256 240 232 260 252 253 217 179 183 189 189 188 183 188 195 204 212 224 237 252 251 242 242
251 162 156 185 182 184 38 55 111 141 177 203 143 127 154 218 206 184 273 279 252 211 190 238 243 225 217 145 144 143 168 162 167 185 200 215 218 218 223 227 235 243 240 239
96 111 111 107 105 95 66 12 14 59 85 70 98 148 146 119 349 315 274 281 317 138 178 239 188 3 22 155 168 178 202 190 195 219 228 231 231 223 222 218 219 231 241 247
154 127 109 103 99 121 143 75 50 55 58 48 31 14 15 148 174 279 304 316 38 72 345 355 31 279 271 234 225 231 229 229 230 221 220 224 238 238 236 233 224 227 247 257
100 115 192 202 184 191 158 121 108 77 74 55 20 1 10 24 31 336 328 332 6 14 344 332 316 303 291 263 245 247 246 243 239 239 234 231 234 239 249 259 257 248 253 260
53 67 70 31 9 39 115 123 125 111 111 131 313 319 340 3 356 324 319 336 345 339 330 325 316 296 283 282 286 281 270 253 234 222 225 234 242 248 257 260 257 255 258 261